Hourly Data Report for October 13, 2013

All times are specified in Local Standard Time (LST). Add 1 hour to adjust for Daylight Saving Time where and when it is observed.

GJOA HAVEN A
NUNAVUT

68°38'08.000" N
95°51'01.000" W
46.90 m
2302337
71597
YHK

Download Data

Hourly Data (October 2013)
Hourly Data Report for October 13, 2013
Temp Definition
°C
Dew Point Temp Definition
°C
Rel Hum Definition
%
Wind Dir Definition
10's deg

Wind Spd Definition
km/h
Visibility Definition
km
Stn Press Definition
kPa
Hmdx Definition


Wind Chill Definition


Weather Definition


TIME
00:00 Legend Double Dagger -1.6 -1.9 98 30 15 16.1 100.17   -6 LegendNANA
01:00 Legend Double Dagger -1.7 -1.8 99 31 17 4.8 100.20   -7 LegendNANA
02:00 Legend Double Dagger -2.6 -2.9 98 32 21 16.1 100.21   -9 LegendNANA
03:00 Legend Double Dagger -4.0 -4.3 98 32 21 16.1 100.25   -10 LegendNANA
04:00 Legend Double Dagger -4.4 -4.5 99 32 22 2.0 100.28   -11 LegendNANA
05:00 Legend Double Dagger -2.9 -3.0 99 33 15 1.6 100.32   -8 LegendNANA
06:00 Legend Double Dagger -2.9 -3.2 98 33 22 9.7 100.34   -9 LegendNANA
07:00 Legend Double Dagger -2.9 -3.0 99 32 24 2.4 100.35   -10 LegendNANA
08:00 Legend Double Dagger -2.4 -2.7 98 33 21 16.1 100.39   -8 LegendNANA
09:00 Legend Double Dagger -1.9 -2.0 99 34 21 12.9 100.43   -8 LegendNANA
10:00 Legend Double Dagger -1.8 -1.9 99 33 22 16.1 100.45   -8 LegendNANA
11:00 Legend Double Dagger -1.8 -2.2 97 34 28 16.1 100.45   -9 LegendNANA
12:00 Legend Double Dagger -1.8 -2.4 96 35 24 16.1 100.49   -8 LegendNANA
13:00 Legend Double Dagger -2.2 -2.3 99 33 32 0.6 100.49   -10 LegendNANA
14:00 Legend Double Dagger -2.1 -2.2 99 34 28 9.7 100.54   -9 LegendNANA
15:00 Legend Double Dagger -2.6 -2.7 99 35 26 4.8 100.56   -9 LegendNANA
16:00 Legend Double Dagger -2.5 -2.6 99 34 24 1.2 100.59   -9 LegendNANA
17:00 Legend Double Dagger -2.1 -2.2 99 36 22 16.1 100.63   -8 LegendNANA
18:00 Legend Double Dagger -2.6 -3.0 97 35 24 16.1 100.64   -9 LegendNANA
19:00 Legend Double Dagger -3.7 -3.8 99 35 24 8.1 100.66   -11 LegendNANA
20:00 Legend Double Dagger -3.3 -3.6 98 35 22 16.1 100.67   -10 LegendNANA
21:00 Legend Double Dagger -3.4 -3.7 98 35 28 16.1 100.66   -11 LegendNANA
22:00 Legend Double Dagger -3.4 -3.7 98 35 28 16.1 100.66   -11 LegendNANA
23:00 Legend Double Dagger -3.7 -4.3 96 35 28 16.1 100.68   -11 LegendNANA

Notes on Data Quality.

Legend

  • E = Estimated
  • M = Missing
  • NA = Not Available
  • ‡ = Partner data that is not subject to review by the National Climate Archives
Date modified: